Location: Bijele Vode
(45.2833°N, 16.2000°E)
Time: 13:10:00
(UTC+00:00)

CZ-2C R/B - Pass Details

Date: 18 September 2020
Orbit: 785 x 870 km, 98.2° (Epoch: 30 October)

Event Time Altitude Azimuth Distance (km) Brightness Sun altitude
Rises 19:16:46 0° 8° (N) 3,411 6.1 -23.9°
Reaches altitude 10° 19:19:10 10° 4° (N) 2,484 5.4 -24.2°
Maximum altitude 19:24:30 51° 290° (WNW) 1,069 3.5 -25.0°
Drops below altitude 10° 19:29:53 10° 216° (SW) 2,504 5.2 -25.8°
Sets 19:32:19 0° 211° (SSW) 3,442 5.9 -26.2°
